[[{"header":{"parameterUnit":"m.s-1","parameterCategory":1,"la1":30.2991,"la2":30.254,"lo1":-89.0895,"lo2":-89.0444,"dy":0.0017,"dx":0.0017,"nx":28,"ny":28,"refTime":"2024-04-23T21:00:00:Z","depth":0,"parameterNumber":2,"parameterNumberName":"U-component_of_WINDS"},"data":[0,0,0,0,0,0,0,0,0,0,0,0,0,0,0,0,0,0,0,0,0,0,0,0,0,0,0,0,0,0,0,0,0,0,0,0,0,0,0,0,0,0,0,0,0,0,0,0,0,0,0,0,0,0,0,0,0,0,0.465,0.4651,0,0.4761,0.4763,0.4764,0.4808,0.4808,0.4807,0.4807,0.4922,0.4926,0.4929,0,0,0,0,0,0,0,0,0,0,0,0,0,0.4476,0.4479,0.465,0.4651,0.4653,0.4761,0.4763,0.4764,0.4808,0.4808,0.4807,0.4807,0.4921,0.4925,0.4929,0,0,0,0,0,0,0,0,0,0,0,0,0,0.4566,0.448,0.465,0.4688,0.4692,0.4761,0.4763,0.4765,0.4808,0.4808,0.4807,0.4807,0.492,0.4925,0.493,0.4969,0,0,0.4945,0.4947,0,0,0,0,0,0,0,0,0.4561,0.4572,0.4681,0.4685,0.469,0.477,0.4744,0.4833,0.4808,0.4764,0.4807,0.4807,0.4872,0.4881,0.4903,0.4975,0.4979,0.4945,0.4948,0.4951,0.4952,0,0,0,0,0,0,0,0.4554,0.4568,0.4694,0.4682,0.4688,0.4699,0.4712,0.4761,0.4819,0.4768,0.4771,0.4784,0.4875,0.4898,0.4906,0.4981,0.4945,0.495,0.4953,0.4955,0.509,0.509,0,0,0,0,0,0,0.4542,0.4562,0.4691,0.4697,0.4623,0.4703,0.4717,0.4745,0.4819,0.483,0.4784,0.4786,0.489,0.49,0.491,0.4961,0.4951,0.4955,0.4958,0.5089,0.509,0.5091,0,0,0,0,0,0,0.4538,0.4553,0.4686,0.4631,0.4649,0.4706,0.4738,0.4748,0.4771,0.4831,0.4842,0.4797,0.489,0.4903,0.4954,0.4965,0.4958,0.4962,0.5089,0.509,0.509,0.5062,0,0,0,0,0,0,0.4533,0.4551,0.4567,0.4631,0.4651,0.4728,0.4739,0.475,0.4779,0.4782,0.4846,0.4856,0.489,0.4946,0.4959,0.4972,0.4966,0.5088,0.5089,0.509,0.5062,0.5062,0.5062,0,0,0,0,0,0.4526,0.4555,0.4567,0.4583,0.4672,0.4728,0.474,0.4778,0.478,0.4796,0.4835,0.4854,0.4962,0.4951,0.4966,0.498,0.5087,0.5089,0.509,0.5062,0.5062,0.5062,0,0,0,0,0,0,0.4491,0.4564,0.4579,0.4629,0.4672,0.4736,0.4757,0.4777,0.4821,0.4822,0.4868,0.4882,0.4929,0.496,0.4946,0.5022,0.5026,0.503,0.5,0.5,0.5,0.4991,0.497,0,0,0,0,0,0.4489,0.4529,0.459,0.4628,0.4649,0.4699,0.4725,0.4751,0.4798,0.4816,0.4859,0.4904,0.4948,0.4976,0.502,0.5067,0.5081,0.5084,0.5084,0.5083,0.5087,0.5113,0.5115,0.5095,0.5095,0.5095,0,0,0.4486,0.453,0.4552,0.4622,0.4659,0.4699,0.4714,0.4756,0.4786,0.4823,0.4873,0.4906,0.4959,0.5008,0.5031,0.5035,0.5095,0.5085,0.5084,0.5088,0.5115,0.5117,0.5118,0.5096,0.5096,0.5096,0,0,0.4499,0.4537,0.4573,0.4609,0.4663,0.4696,0.4705,0.4766,0.4788,0.4839,0.4867,0.4904,0.4979,0.5015,0.5044,0.507,0.509,0.5083,0.5081,0.5107,0.5108,0.511,0.5119,0.5122,0.5086,0.5086,0.5086,0,0.4488,0.4549,0.4588,0.4628,0.4658,0.4692,0.4729,0.4762,0.4828,0.4848,0.4851,0.4945,0.4983,0.5041,0.5047,0.5069,0.508,0.5076,0.5105,0.5107,0.5109,0.5118,0.5121,0.5085,0.5085,0.5085,0.5085,0,0.4532,0.4574,0.4596,0.4658,0.469,0.4728,0.4774,0.4801,0.4824,0.4857,0.4908,0.4955,0.5008,0.5024,0.5047,0.5085,0.5085,0.5096,0.5101,0.5109,0.5118,0.5122,0.5083,0.5083,0.5084,0.5084,0,0,0.4527,0.461,0.4618,0.4646,0.4709,0.4742,0.4781,0.4833,0.4855,0.49,0.4934,0.4996,0.5006,0.5038,0.5065,0.5087,0.5105,0.5096,0.5098,0.5095,0.5149,0.514,0.5144,0.5118,0.5119,0.5119,0.5144,0,0.4549,0.462,0.4657,0.4712,0.4751,0.4784,0.4818,0.486,0.4891,0.4928,0.4963,0.5006,0.5016,0.5036,0.5059,0.5097,0.5116,0.5096,0.515,0.5151,0.5135,0.5149,0.514,0.5161,0.5148,0.5149,0.5149,0,0.4584,0.4627,0.4686,0.4744,0.4761,0.4791,0.4841,0.4877,0.4925,0.4946,0.4981,0.5007,0.505,0.5051,0.511,0.5096,0.512,0.5142,0.5144,0.515,0.5151,0.5155,0.5169,0.5172,0.5155,0.5155,0.5155,0,0.4574,0.4647,0.4692,0.4715,0.4783,0.4803,0.4833,0.488,0.4909,0.4953,0.4971,0.502,0.5046,0.5083,0.5122,0.5119,0.5177,0.5181,0.5195,0.5194,0.5206,0.5205,0.5224,0.5222,0.5222,0.5222,0.5222,0,0.4595,0.4629,0.4688,0.4716,0.4755,0.4797,0.4835,0.4867,0.4909,0.4943,0.4975,0.5006,0.5055,0.5093,0.5124,0.5168,0.5179,0.5198,0.5205,0.5195,0.5193,0.5212,0.5211,0.5222,0.5222,0.5222,0.5222,0,0.459,0.4631,0.4682,0.4742,0.4757,0.4784,0.4835,0.4863,0.4896,0.4939,0.4951,0.5002,0.5048,0.509,0.5152,0.5172,0.5216,0.5226,0.52,0.5204,0.5216,0.5214,0.5247,0.5254,0.5247,0.5247,0.5247,0,0.4601,0.4628,0.469,0.4715,0.4744,0.4784,0.4813,0.4854,0.4883,0.4939,0.496,0.5008,0.5049,0.5121,0.5164,0.521,0.5222,0.523,0.5229,0.5217,0.5222,0.5219,0.5222,0.5229,0.5229,0.5229,0.5229,0,0.4614,0.4633,0.4673,0.472,0.4754,0.4793,0.4834,0.4852,0.4901,0.4932,0.4979,0.501,0.5072,0.512,0.5171,0.5202,0.5224,0.5229,0.5235,0.5224,0.5208,0.5216,0.5198,0.5228,0.5228,0.5228,0.5228,0.5228,0.4618,0.4643,0.4691,0.4735,0.4769,0.4806,0.4835,0.487,0.491,0.4963,0.4985,0.5033,0.508,0.5151,0.5181,0.5219,0.5224,0.5232,0.5234,0.5236,0.5233,0.5201,0.5229,0.5229,0.5229,0.5229,0.5229,0,0.4633,0.4665,0.4705,0.476,0.4794,0.4811,0.4856,0.4883,0.4925,0.4966,0.5005,0.5059,0.5105,0.515,0.5199,0.522,0.5231,0.5231,0.523,0.5237,0.5227,0.5217,0.5222,0.5222,0.5222,0.5221,0.5221,0.5221,0.4645,0.4689,0.4713,0.4774,0.4806,0.4852,0.4877,0.4911,0.4944,0.5002,0.504,0.5069,0.5113,0.5164,0.5207,0.5219,0.5236,0.5233,0.5248,0.5238,0.5238,0.5238,0.5229,0.5236,0.5236,0.5255,0.5255,0.5255]},{"header":{"parameterUnit":"m.s-1","parameterCategory":1,"la1":30.2991,"la2":30.254,"lo1":-89.0895,"lo2":-89.0444,"dy":0.0017,"dx":0.0017,"nx":28,"ny":28,"refTime":"2024-04-23T21:00:00:Z","depth":0,"parameterNumber":3,"parameterNumberName":"V-component_of_WINDS"},"data":[0,0,0,0,0,0,0,0,0,0,0,0,0,0,0,0,0,0,0,0,0,0,0,0,0,0,0,0,0,0,0,0,0,0,0,0,0,0,0,0,0,0,0,0,0,0,0,0,0,0,0,0,0,0,0,0,0,0,1.3744,1.3743,0,1.3653,1.3652,1.3651,1.3568,1.3567,1.3566,1.3565,1.3469,1.3467,1.3465,0,0,0,0,0,0,0,0,0,0,0,0,0,1.3845,1.3844,1.3744,1.3743,1.3742,1.3653,1.3652,1.365,1.3568,1.3567,1.3566,1.3565,1.3469,1.3467,1.3465,0,0,0,0,0,0,0,0,0,0,0,0,0,1.3782,1.3843,1.3745,1.369,1.3685,1.3653,1.3652,1.365,1.3569,1.3567,1.3566,1.3564,1.347,1.3468,1.3465,1.3479,0,0,1.3457,1.3456,0,0,0,0,0,0,0,0,1.3786,1.3778,1.37,1.3694,1.3688,1.362,1.3652,1.3593,1.3569,1.3613,1.3565,1.3564,1.352,1.3513,1.3499,1.3474,1.347,1.3457,1.3456,1.3455,1.3454,0,0,0,0,0,0,0,1.379,1.3782,1.3708,1.3698,1.3691,1.367,1.3659,1.364,1.3576,1.3609,1.3602,1.3593,1.3517,1.3502,1.3497,1.3469,1.3457,1.3455,1.3454,1.3453,1.3449,1.345,0,0,0,0,0,0,1.3803,1.3786,1.3711,1.3705,1.3734,1.3669,1.3657,1.3643,1.3576,1.3564,1.3594,1.3589,1.3507,1.35,1.3493,1.3504,1.3455,1.3452,1.3451,1.3448,1.3449,1.3451,0,0,0,0,0,0,1.3806,1.3797,1.3715,1.3744,1.3732,1.3669,1.3654,1.3642,1.3628,1.3565,1.3552,1.3591,1.3506,1.3496,1.3483,1.35,1.3451,1.3449,1.3446,1.3448,1.345,1.3527,0,0,0,0,0,0,1.3809,1.3799,1.3804,1.3745,1.3731,1.3708,1.3655,1.3642,1.3624,1.3617,1.3559,1.3548,1.3504,1.3487,1.348,1.3495,1.3447,1.3444,1.3447,1.345,1.3523,1.3532,1.3539,0,0,0,0,0,1.3813,1.3829,1.3805,1.3796,1.3736,1.3709,1.37,1.365,1.3626,1.363,1.3589,1.355,1.3499,1.3486,1.3478,1.3493,1.3443,1.3446,1.3449,1.3519,1.353,1.3539,0,0,0,0,0,0,1.3892,1.382,1.3793,1.3791,1.3756,1.3695,1.3699,1.3663,1.3635,1.3629,1.3567,1.3554,1.3548,1.3518,1.3506,1.3502,1.3465,1.3467,1.3521,1.3531,1.3539,1.3546,1.3445,0,0,0,0,0,1.3909,1.3894,1.3832,1.3835,1.382,1.3763,1.3749,1.3713,1.3675,1.3659,1.3618,1.3581,1.3557,1.3542,1.3516,1.3518,1.3504,1.3524,1.3532,1.3539,1.3541,1.3539,1.3547,1.3461,1.3461,1.3461,0,0,1.3944,1.3903,1.3897,1.385,1.382,1.3804,1.3751,1.3737,1.3724,1.3657,1.3642,1.361,1.3565,1.3559,1.3555,1.3535,1.3561,1.3543,1.3549,1.3547,1.3543,1.3551,1.3559,1.3463,1.3463,1.3463,0,0,1.4,1.3968,1.3968,1.3938,1.3893,1.3854,1.3854,1.3798,1.3774,1.3758,1.3707,1.3691,1.365,1.362,1.36,1.3644,1.3606,1.3637,1.368,1.3678,1.3685,1.3691,1.3706,1.3713,1.3639,1.3639,1.364,0,1.405,1.4025,1.3972,1.3961,1.3941,1.388,1.3878,1.3852,1.38,1.3787,1.3766,1.3714,1.3679,1.3665,1.3676,1.3661,1.3658,1.3644,1.3689,1.3694,1.3698,1.3712,1.3718,1.3644,1.3643,1.3643,1.3642,0,1.4088,1.4072,1.4076,1.4029,1.4009,1.4003,1.3948,1.3935,1.39,1.3864,1.3848,1.3804,1.3768,1.3762,1.3728,1.3743,1.3732,1.3701,1.3663,1.3712,1.3724,1.3728,1.3649,1.3648,1.3647,1.3646,0,0,1.4192,1.4114,1.4117,1.4094,1.4039,1.4025,1.4015,1.3981,1.397,1.3936,1.3926,1.3893,1.3863,1.384,1.3802,1.3801,1.3838,1.3769,1.3767,1.3783,1.3851,1.3875,1.3882,1.3812,1.3813,1.3814,1.3855,0,1.4239,1.422,1.4171,1.4166,1.415,1.4091,1.4082,1.4047,1.4012,1.3992,1.3953,1.3931,1.3894,1.3879,1.3876,1.3835,1.3851,1.3831,1.3802,1.3801,1.3815,1.3889,1.3914,1.3955,1.3859,1.386,1.386,0,1.4292,1.4262,1.4256,1.4201,1.4192,1.4186,1.415,1.4132,1.409,1.4065,1.4039,1.3997,1.3982,1.3947,1.3926,1.3913,1.3898,1.3876,1.3876,1.3872,1.3834,1.3886,1.3967,1.3973,1.3867,1.3867,1.3866,0,1.4369,1.4327,1.4318,1.43,1.4236,1.4232,1.4205,1.4162,1.4144,1.4112,1.4099,1.4066,1.4048,1.4022,1.3972,1.3951,1.3956,1.3917,1.3934,1.3935,1.3938,1.3938,1.4017,1.3928,1.3928,1.3928,1.3928,0,1.4427,1.4425,1.4351,1.4346,1.4342,1.4285,1.4282,1.4249,1.4211,1.4197,1.4143,1.4131,1.4065,1.4045,1.4005,1.3993,1.3985,1.3964,1.3953,1.3969,1.3972,1.3958,1.3954,1.3929,1.3929,1.3929,1.3928,0,1.4512,1.4462,1.4448,1.4389,1.4373,1.4373,1.4321,1.4313,1.4275,1.4258,1.425,1.4191,1.4164,1.4111,1.4069,1.4042,1.4039,1.4021,1.4054,1.4048,1.4068,1.4067,1.4141,1.4148,1.4055,1.4056,1.4056,0,1.4552,1.455,1.449,1.4477,1.4452,1.4432,1.4414,1.4357,1.434,1.4292,1.4289,1.4258,1.4231,1.4191,1.4143,1.4111,1.4091,1.4119,1.4085,1.4101,1.4091,1.4092,1.4091,1.4127,1.4128,1.4129,1.413,0,1.463,1.4605,1.4581,1.4549,1.4528,1.45,1.4468,1.446,1.4396,1.4379,1.4351,1.433,1.4288,1.4258,1.4218,1.4189,1.4149,1.4141,1.4143,1.4159,1.4179,1.4168,1.4075,1.414,1.4139,1.4138,1.4137,1.4137,1.4693,1.4688,1.4645,1.462,1.459,1.4562,1.4551,1.4512,1.4488,1.445,1.4418,1.4393,1.4349,1.4292,1.4265,1.4244,1.4225,1.4228,1.4229,1.4231,1.4237,1.4182,1.4237,1.4236,1.4236,1.4236,1.4236,0,1.4768,1.4737,1.4715,1.4672,1.4652,1.4617,1.4579,1.4565,1.4544,1.4508,1.4482,1.445,1.442,1.437,1.4335,1.4328,1.4309,1.4321,1.4321,1.4315,1.4257,1.4258,1.4337,1.4337,1.4337,1.4337,1.4337,1.4337,1.4804,1.4794,1.4764,1.4738,1.4706,1.4682,1.4664,1.4637,1.4608,1.4575,1.455,1.4518,1.4475,1.4437,1.4408,1.4394,1.4384,1.4402,1.4382,1.4329,1.4319,1.431,1.4311,1.44,1.44,1.4442,1.4442,1.4442]}]]